User: anonymous   Login
Location: Chervonnoye
(48.6000°N, 34.4000°E)
Time: 13:08:56
(UTC+00:00)
Language:

CZ-2D R/B - Orbit

View from above orbital plane
View from above orbital plane
View from above satellite
View from above satellite

Ground track
Ground track

The orbit data is extracted from the following two-line orbital elements,

1 28738U 05024B   21061.65477966  .00000603  00000-0  38423-4 0  9992
2 28738  97.3683  81.4369 0012268  19.2595 340.9097 15.12288359860423
Epoch (UTC): 02 March 2021 15:42:52
Eccentricity: 0.0012268
inclination: 97.3683°
perigee height: 521 km
apogee height: 538 km
right ascension of ascending node: 81.4369°
argument of perigee: 19.2595°
revolutions per day: 15.12288359
mean anomaly at epoch: 340.9097°
orbit number at epoch: 86042

The dashed part of the orbit path shows where the satellite is in the earth's shadow,  

DLR